Location: Sungai Tediloi
(3.1167°N, 113.1333°E)
Time: 05:23:32
(UTC+00:00)

Daily predictions for brighter satellites

Satellite Brightness Start Highest point End
(mag) Time Altitude Azimuth Time Altitude Azimuth Time Altitude Azimuth
ARIANE 5 R/B 3.2 10:15:43 10° WNW 10:19:43 73° N 10:42:22 10° E
USA 215 3.7 10:40:35 10° SSE 10:47:03 68° SW 10:53:31 10° NW
Meteor 1-24 Rocket 4.2 10:41:55 10° NNE 10:47:28 45° E 10:53:08 10° SSE
ARIANE 3 DEB 4.4 10:44:14 10° SW 10:48:20 29° S 10:52:48 10° ESE
COBE Rocket 4.3 10:48:42 10° NNE 10:53:33 43° E 10:58:23 10° S
Nadezhda 3 Rocket 4.5 10:55:26 10° NNE 11:01:02 37° E 11:06:39 10° SSE
Cosmos 2237 Rocket 3.1 10:55:45 10° SSW 11:01:15 56° WNW 11:06:48 10° N
Hubble Space Telescope 3.2 10:58:49 10° WNW 11:01:22 17° NNW 11:03:54 10° NNE
CZ-2D R/B 2.5 10:58:30 10° S 11:01:28 88° WSW 11:04:25 10° NNW
Cosmos 1538 Rocket 4.0 10:58:18 10° N 11:03:29 86° ENE 11:08:45 10° SSE
SPOT 1/Viking Rocket 3.9 10:58:22 10° S 11:03:33 72° WSW 11:08:42 10° NNW
Cosmos 2181 Rocket 4.3 11:05:55 10° N 11:12:06 74° W 11:18:25 10° S
GPS 2-17 Rocket1 3.2 11:08:50 10° WNW 11:13:20 66° NNE 11:16:50 17° E
Sakura Rocket 3.1 11:09:37 10° NW 11:13:38 67° NNE 11:17:42 16° ESE
Cosmos 1933 Rocket 4.4 11:11:44 10° SSW 11:15:59 54° W 11:20:14 10° N
Aurora 2 Rocket 4.5 11:11:35 10° W 11:16:17 37° NNW 11:22:37 10° NE
Cosmos 2228 Rocket 3.2 11:12:28 10° N 11:16:49 77° W 11:21:10 10° S
Okean 1-7 4.5 11:15:14 10° NNW 11:19:05 39° W 11:22:58 10° SSW
Cosmos 1733 Rocket 3.9 11:15:41 10° SSE 11:19:22 27° E 11:23:02 10° NE
Cosmos 923 Rocket 4.3 11:16:15 10° N 11:21:11 44° ENE 11:26:06 10° SSE
PSLV R/B 4.3 11:21:31 18° ESE 11:23:29 27° ENE 11:26:55 10° NNE
Resurs 01 Rocket 2.1 11:19:48 10° SE 11:23:51 37° ENE 11:27:52 10° N
YAOGAN 1 2.5 11:20:11 10° S 11:24:26 84° WSW 11:28:40 10° NNW
ARIANE 5 R/B 3.7 11:20:57 10° S 11:25:41 43° WSW 11:30:30 10° NNW
Star 63D 3.7 11:27:53 10° WSW 11:30:18 83° NNW 11:35:41 13° ENE
Ariane 3 Deb 4.2 11:26:52 10° SW 11:30:42 39° SSE 11:36:00 21° ESE
Atlas Centaur 2 2.7 11:26:35 10° WNW 11:31:07 46° SSW 11:35:22 17° SE
Cosmos 1703 Rocket 3.5 11:27:04 10° N 11:31:17 59° E 11:35:31 10° SSE
Milstar 3 3.6 11:25:13 10° WSW 11:31:38 53° NNW 11:39:49 10° NE
CZ-2D R/B 3.3 11:31:38 10° SSE 11:35:41 67° ENE 11:39:38 10° N
SJ-6B 4.1 11:37:09 21° NE 11:37:09 21° NE 11:39:04 10° NNE
GEOS 3 Rocket 3.6 11:31:07 10° SSE 11:36:15 86° WSW 11:41:29 10° NNW
Meteor 2-19 Rocket 4.4 11:32:17 10° N 11:38:13 56° E 11:44:09 10° SSE
SL-8 Rocket 4.0 11:32:11 10° S 11:38:24 87° W 11:44:39 10° N
SL-24 R/B 4.3 11:36:33 10° NNE 11:41:00 49° ESE 11:45:11 10° S
Skynet4D Del rocket 4.2 11:37:08 10° WNW 11:43:31 71° SSW 11:47:45 26° SE
Cosmos 1943 Rocket 3.7 11:41:00 10° NNE 11:43:41 18° ENE 11:43:41 18° ENE
Cosmos 2341 Rocket 4.3 11:44:11 10° S 11:50:20 69° W 11:56:32 10° N
SAR-Lupe-1 4.4 11:48:34 17° S 11:51:08 63° WSW 11:54:38 10° NNW
USA 32 4.0 11:47:40 10° S 11:52:47 58° E 11:57:53 10° NNE
Cosmos 1400 Rocket 2.4 11:49:53 10° S 11:53:29 87° W 11:57:03 10° N
Spot 4 Rocket 4.0 11:48:53 10° S 11:54:00 85° W 11:59:04 10° NNW
